Weather History for Escanaba, MI

Change the Weather History Date:

Saturday, March 29, 2014

  Actual Average Record
Temperature  
Mean Temperature 29 °F -  
Max Temperature 37 °F 39 °F 61 °F (1963)
Min Temperature 19 °F 25 °F 5 °F (1970)
Degree Days  
Heating Degree Days 36    
Moisture  
Dew Point 15 °F    
Average Humidity 61    
Maximum Humidity 86    
Minimum Humidity 35    
Precipitation  
Precipitation 0.00 in - - ()
Sea Level Pressure  
Sea Level Pressure 30.26 in    
Wind  
Wind Speed 3 mph (ENE)    
Max Wind Speed 10 mph    
Max Gust Speed -    
Visibility 10 miles    
Events      
Averages and records for this station are not official NWS values.
T = Trace of Precipitation, MM = Missing Value Source: NWS Daily Summary

Daily Weather History Graph

Daily Weather History Graph

Search for Another Location

Airport:

Trip Planner

Search our weather history database for the weather conditions in past years. The results will help you decide how hot, cold, wet, or windy it might be!

Date:

Astronomy

Mar. 29, 2014 Rise Set
Actual Time 7:34 AM EDT 8:12 PM EDT
Civil Twilight 7:04 AM EDT 8:42 PM EDT
Nautical Twilight 6:28 AM EDT 9:18 PM EDT
Astronomical Twilight 5:51 AM EDT 9:55 PM EDT
Moon 6:46 AM EDT (3/29) 7:15 PM EDT (3/29)
Length of Visible Light 13h 38m
Length of Day
12h 38m
Waning Crescent, 2% of the Moon is Illuminated
Mar 29
Waning Crescent
Mar 30
New
Apr 7
First Quarter
Apr 15
Full
Apr 22
Last Quarter

Hourly Weather History & Observations

Time (EDT) Temp. Windchill Dew Point Humidity Pressure Visibility Wind Dir Wind Speed Gust Speed Precip Events Conditions
12:15 AM 26.6 °F - 17.6 °F 69% 30.25 in 10.0 mi Calm Calm - N/A   Clear
12:35 AM 24.8 °F - 17.6 °F 74% 30.25 in 10.0 mi Calm Calm - N/A   Clear
12:55 AM 24.8 °F 20.5 °F 19.4 °F 80% 30.25 in 10.0 mi NNE 3.5 mph - N/A   Partly Cloudy
1:15 AM 24.8 °F 20.5 °F 17.6 °F 74% 30.24 in 10.0 mi NNE 3.5 mph - N/A   Clear
1:35 AM 24.8 °F 19.1 °F 17.6 °F 74% 30.23 in 10.0 mi NNE 4.6 mph - N/A   Clear
1:55 AM 26.6 °F 21.2 °F 17.6 °F 69% 30.23 in 10.0 mi NNE 4.6 mph - N/A   Clear
2:15 AM 26.6 °F - 17.6 °F 69% 30.24 in 10.0 mi Calm Calm - N/A   Partly Cloudy
2:35 AM 24.8 °F 20.5 °F 17.6 °F 74% 30.24 in 10.0 mi NNE 3.5 mph - N/A   Scattered Clouds
2:55 AM 24.8 °F - 17.6 °F 74% 30.24 in 10.0 mi Calm Calm - N/A   Scattered Clouds
3:15 AM 24.8 °F - 19.4 °F 80% 30.25 in 10.0 mi Calm Calm - N/A   Mostly Cloudy
3:35 AM 24.8 °F - 17.6 °F 74% 30.25 in 10.0 mi Calm Calm - N/A   Overcast
3:55 AM 24.8 °F 19.1 °F 19.4 °F 80% 30.25 in 10.0 mi NNW 4.6 mph - N/A   Mostly Cloudy
4:15 AM 24.8 °F - 17.6 °F 74% 30.26 in 10.0 mi Calm Calm - N/A   Scattered Clouds
4:35 AM 24.8 °F - 17.6 °F 74% 30.26 in 10.0 mi Calm Calm - N/A   Scattered Clouds
4:55 AM 24.8 °F - 17.6 °F 74% 30.27 in 10.0 mi Calm Calm - N/A   Mostly Cloudy
5:15 AM 23.0 °F - 17.6 °F 80% 30.28 in 10.0 mi Calm Calm - N/A   Mostly Cloudy
5:35 AM 23.0 °F 18.4 °F 17.6 °F 80% 30.29 in 10.0 mi NW 3.5 mph - N/A   Overcast
5:55 AM 24.8 °F 20.5 °F 17.6 °F 74% 30.30 in 10.0 mi NNW 3.5 mph - N/A   Overcast
6:15 AM 23.0 °F 17.0 °F 17.6 °F 80% 30.30 in 10.0 mi North 4.6 mph - N/A   Overcast
6:35 AM 23.0 °F 17.0 °F 17.6 °F 80% 30.30 in 10.0 mi North 4.6 mph - N/A   Overcast
6:55 AM 23.0 °F 17.0 °F 17.6 °F 80% 30.30 in 10.0 mi North 4.6 mph - N/A   Overcast
7:15 AM 23.0 °F 18.4 °F 17.6 °F 80% 30.30 in 10.0 mi NE 3.5 mph - N/A   Mostly Cloudy
7:35 AM 23.0 °F 15.8 °F 17.6 °F 80% 30.31 in 10.0 mi North 5.8 mph - N/A   Mostly Cloudy
7:55 AM 23.0 °F 17.0 °F 15.8 °F 74% 30.30 in 10.0 mi North 4.6 mph - N/A   Overcast
8:15 AM 24.8 °F 19.1 °F 15.8 °F 69% 30.31 in 10.0 mi NE 4.6 mph - N/A   Overcast
8:35 AM 24.8 °F 20.5 °F 14.0 °F 64% 30.31 in 10.0 mi NNE 3.5 mph - N/A   Overcast
8:55 AM 24.8 °F 19.1 °F 12.2 °F 59% 30.31 in 10.0 mi NE 4.6 mph - N/A   Mostly Cloudy
9:15 AM 24.8 °F 19.1 °F 12.2 °F 59% 30.31 in 10.0 mi NE 4.6 mph - N/A   Mostly Cloudy
9:35 AM 26.6 °F 20.0 °F 10.4 °F 51% 30.31 in 10.0 mi NE 5.8 mph - N/A   Overcast
9:55 AM 26.6 °F 20.0 °F 10.4 °F 51% 30.31 in 10.0 mi NE 5.8 mph - N/A   Mostly Cloudy
10:15 AM 26.6 °F 21.2 °F 10.4 °F 51% 30.32 in 10.0 mi NNE 4.6 mph - N/A   Clear
10:35 AM 28.4 °F 21.2 °F 10.4 °F 47% 30.32 in 10.0 mi NE 6.9 mph - N/A   Partly Cloudy
10:55 AM 28.4 °F 22.2 °F 8.6 °F 43% 30.32 in 10.0 mi ENE 5.8 mph - N/A   Partly Cloudy
11:15 AM 28.4 °F 22.2 °F 6.8 °F 40% 30.32 in 10.0 mi NE 5.8 mph - N/A   Partly Cloudy
11:35 AM 28.4 °F 24.6 °F 6.8 °F 40% 30.31 in 10.0 mi NE 3.5 mph - N/A   Partly Cloudy
11:55 AM 30.2 °F 25.4 °F 8.6 °F 40% 30.31 in 10.0 mi ENE 4.6 mph - N/A   Mostly Cloudy
12:15 PM 30.2 °F 25.4 °F 8.6 °F 40% 30.31 in 10.0 mi ENE 4.6 mph - N/A   Overcast
12:35 PM 32.0 °F 25.6 °F 8.6 °F 38% 30.30 in 10.0 mi East 6.9 mph - N/A   Partly Cloudy
12:55 PM 33.8 °F 27.7 °F 8.6 °F 35% 30.30 in 10.0 mi East 6.9 mph - N/A   Clear
1:15 PM 33.8 °F 26.4 °F 10.4 °F 38% 30.29 in 10.0 mi ENE 9.2 mph - N/A   Clear
1:35 PM 33.8 °F 26.4 °F 8.6 °F 35% 30.28 in 10.0 mi ENE 9.2 mph - N/A   Clear
1:55 PM 33.8 °F 27.0 °F 10.4 °F 38% 30.28 in 10.0 mi ENE 8.1 mph - N/A   Clear
2:15 PM 35.6 °F 28.0 °F 12.2 °F 38% 30.27 in 10.0 mi ENE 10.4 mph - N/A   Clear
2:35 PM 35.6 °F 28.6 °F 10.4 °F 35% 30.26 in 10.0 mi ENE 9.2 mph - N/A   Clear
2:55 PM 35.6 °F 28.6 °F 12.2 °F 38% 30.26 in 10.0 mi East 9.2 mph - N/A   Clear
3:15 PM 35.6 °F 28.6 °F 12.2 °F 38% 30.25 in 10.0 mi ENE 9.2 mph - N/A   Clear
3:35 PM 37.4 °F 30.8 °F 14.0 °F 38% 30.24 in 10.0 mi East 9.2 mph - N/A   Clear
3:55 PM 35.6 °F 28.6 °F 15.8 °F 44% 30.24 in 10.0 mi ESE 9.2 mph - N/A   Clear
4:15 PM 35.6 °F 28.6 °F 17.6 °F 48% 30.23 in 10.0 mi ESE 9.2 mph - N/A   Clear
4:35 PM 35.6 °F 28.6 °F 17.6 °F 48% 30.23 in 10.0 mi ESE 9.2 mph - N/A   Clear
4:55 PM 35.6 °F 29.2 °F 17.6 °F 48% 30.23 in 10.0 mi SSE 8.1 mph - N/A   Clear
5:15 PM 33.8 °F 25.8 °F 17.6 °F 52% 30.22 in 10.0 mi SSE 10.4 mph - N/A   Clear
5:35 PM 33.8 °F 27.0 °F 17.6 °F 52% 30.23 in 10.0 mi SSE 8.1 mph - N/A   Clear
5:55 PM 33.8 °F 27.0 °F 19.4 °F 56% 30.22 in 10.0 mi SSE 8.1 mph - N/A   Clear
6:15 PM 33.8 °F 27.7 °F 19.4 °F 56% 30.22 in 10.0 mi SSE 6.9 mph - N/A   Clear
6:35 PM 32.0 °F 24.2 °F 19.4 °F 60% 30.22 in 10.0 mi SSE 9.2 mph - N/A   Clear
6:55 PM 32.0 °F 25.6 °F 19.4 °F 60% 30.22 in 10.0 mi SSE 6.9 mph - N/A   Clear
7:15 PM 33.8 °F 28.6 °F 15.8 °F 48% 30.23 in 10.0 mi South 5.8 mph - N/A   Clear
7:35 PM 33.8 °F 27.7 °F 15.8 °F 48% 30.24 in 10.0 mi South 6.9 mph - N/A   Clear
7:55 PM 30.2 °F 24.3 °F 15.8 °F 55% 30.24 in 10.0 mi South 5.8 mph - N/A   Clear
8:15 PM 30.2 °F - 17.6 °F 60% 30.24 in 10.0 mi Calm Calm - N/A   Clear
8:35 PM 28.4 °F - 17.6 °F 64% 30.23 in 10.0 mi Calm Calm - N/A   Clear
8:55 PM 28.4 °F - 17.6 °F 64% 30.23 in 10.0 mi Calm Calm - N/A   Clear
9:15 PM 28.4 °F - 17.6 °F 64% 30.23 in 10.0 mi Calm Calm - N/A   Clear
9:35 PM 28.4 °F - 15.8 °F 59% 30.24 in 10.0 mi Calm Calm - N/A   Clear
9:55 PM 26.6 °F - 17.6 °F 69% 30.25 in 10.0 mi Calm Calm - N/A   Clear
10:15 PM 26.6 °F - 17.6 °F 69% 30.25 in 10.0 mi Calm Calm - N/A   Clear
10:35 PM 26.6 °F - 17.6 °F 69% 30.24 in 10.0 mi Calm Calm - N/A   Clear
10:55 PM 21.2 °F - 15.8 °F 80% 30.24 in 10.0 mi Calm Calm - N/A   Clear
11:15 PM 21.2 °F - 17.6 °F 86% 30.24 in 10.0 mi Calm Calm - N/A   Clear
11:35 PM 23.0 °F - 19.4 °F 86% 30.24 in 10.0 mi Calm Calm - N/A   Clear
11:55 PM 19.4 °F - 15.8 °F 86% 30.23 in 10.0 mi Calm Calm - N/A   Clear